| time (UTC) | temp C | wind direction | speed KPH | gust KPH | rain 1hr cm | rain 24hr cm | rain mn cm | humidity % | barometer mb |
| 20260504012048 | 12 | 83 | 4.8 | 6.4 | 0.00 | 0.00 | 0.00 | 63 | 1004.0 |
| 20260504011024 | 14 | 87 | 4.8 | 6.4 | 0.00 | 0.00 | 0.00 | 59 | 1003.9 |
| 20260504010040 | 16 | 80 | 3.2 | 4.8 | 0.00 | 0.00 | 0.00 | 52 | 1003.9 |
| 20260504005035 | 17 | 0.0 | 0.0 | 0.00 | 0.00 | 0.00 | 45 | 1003.8 | |
| 20260504004031 | 18 | 253 | 1.6 | 6.4 | 0.00 | 0.00 | 0.00 | 42 | 1003.7 |
| 20260504003027 | 19 | 246 | 1.6 | 3.2 | 0.00 | 0.00 | 0.00 | 40 | 1003.9 |
| 20260504002040 | 20 | 254 | 1.6 | 4.8 | 0.00 | 0.00 | 0.00 | 38 | 1003.9 |
| 20260504001036 | 21 | 256 | 6.4 | 14.5 | 0.00 | 0.00 | 0.00 | 38 | 1003.8 |
| 20260504000031 | 21 | 275 | 4.8 | 20.9 | 0.00 | 0.00 | 0.00 | 37 | 1003.8 |
| 20260503235026 | 21 | 273 | 3.2 | 6.4 | 0.00 | 0.00 | 0.00 | 36 | 1003.6 |
| 20260503234021 | 22 | 249 | 4.8 | 9.7 | 0.00 | 0.00 | 0.00 | 36 | 1003.5 |
| 20260503233016 | 22 | 262 | 4.8 | 17.7 | 0.00 | 0.00 | 0.00 | 34 | 1003.5 |
| 20260503232031 | 22 | 249 | 4.8 | 11.3 | 0.00 | 0.00 | 0.00 | 34 | 1003.5 |
| 20260503231026 | 22 | 262 | 6.4 | 14.5 | 0.00 | 0.00 | 0.00 | 33 | 1003.3 |
| 20260503230022 | 23 | 267 | 8.0 | 20.9 | 0.00 | 0.00 | 0.00 | 33 | 1003.4 |
| 20260503225017 | 24 | 260 | 6.4 | 20.9 | 0.00 | 0.00 | 0.00 | 34 | 1003.2 |
| 20260503224033 | 25 | 244 | 8.0 | 17.7 | 0.00 | 0.00 | 0.00 | 33 | 1003.3 |
| 20260503223028 | 26 | 253 | 6.4 | 20.9 | 0.00 | 0.00 | 0.00 | 33 | 1003.2 |
| 20260503222024 | 26 | 254 | 6.4 | 9.7 | 0.00 | 0.00 | 0.00 | 32 | 1003.0 |
| 20260503221018 | 26 | 238 | 11.3 | 20.9 | 0.00 | 0.00 | 0.00 | 32 | 1003.1 |
| 20260503220033 | 27 | 252 | 6.4 | 14.5 | 0.00 | 0.00 | 0.00 | 33 | 1003.3 |
| 20260503215029 | 26 | 233 | 6.4 | 17.7 | 0.00 | 0.00 | 0.00 | 34 | 1003.3 |
| 20260503214023 | 26 | 232 | 11.3 | 20.9 | 0.00 | 0.00 | 0.00 | 34 | 1003.4 |
| 20260503213019 | 26 | 239 | 9.7 | 17.7 | 0.00 | 0.00 | 0.00 | 34 | 1003.4 |
| 20260503212034 | 27 | 242 | 11.3 | 25.7 | 0.00 | 0.00 | 0.00 | 33 | 1003.4 |
| 20260503211030 | 26 | 248 | 6.4 | 11.3 | 0.00 | 0.00 | 0.00 | 37 | 1003.4 |
| 20260503210025 | 26 | 242 | 9.7 | 16.1 | 0.00 | 0.00 | 0.00 | 36 | 1003.6 |
| 20260503205019 | 27 | 220 | 8.0 | 17.7 | 0.00 | 0.00 | 0.00 | 36 | 1003.9 |
| 20260503204035 | 27 | 241 | 6.4 | 12.9 | 0.00 | 0.00 | 0.00 | 37 | 1003.9 |
| 20260503203030 | 27 | 233 | 8.0 | 16.1 | 0.00 | 0.00 | 0.00 | 37 | 1003.9 |
| 20260503202026 | 26 | 254 | 6.4 | 14.5 | 0.00 | 0.00 | 0.00 | 37 | 1003.9 |
| 20260503201021 | 26 | 256 | 11.3 | 27.4 | 0.00 | 0.00 | 0.00 | 37 | 1004.2 |
| 20260503200017 | 26 | 227 | 6.4 | 14.5 | 0.00 | 0.00 | 0.00 | 39 | 1004.1 |
| 20260503195031 | 25 | 221 | 11.3 | 24.1 | 0.00 | 0.00 | 0.00 | 39 | 1004.3 |
| 20260503194027 | 25 | 241 | 8.0 | 24.1 | 0.00 | 0.00 | 0.00 | 40 | 1004.3 |
| 20260503193023 | 25 | 211 | 8.0 | 16.1 | 0.00 | 0.00 | 0.00 | 40 | 1004.6 |
| 20260503192017 | 25 | 253 | 6.4 | 16.1 | 0.00 | 0.00 | 0.00 | 40 | 1004.7 |
| 20260503191033 | 24 | 228 | 6.4 | 16.1 | 0.00 | 0.00 | 0.00 | 40 | 1004.7 |
| 20260503190027 | 24 | 222 | 8.0 | 17.7 | 0.00 | 0.00 | 0.00 | 41 | 1004.7 |
| 20260503185024 | 23 | 219 | 8.0 | 14.5 | 0.00 | 0.00 | 0.00 | 41 | 1004.9 |
| 20260503184018 | 23 | 260 | 8.0 | 16.1 | 0.00 | 0.00 | 0.00 | 41 | 1005.1 |
| 20260503183114 | 23 | 232 | 8.0 | 16.1 | 0.00 | 0.00 | 0.00 | 41 | 1005.2 |
| 20260503182030 | 23 | 197 | 6.4 | 16.1 | 0.00 | 0.00 | 0.00 | 42 | 1005.3 |
| 20260503181025 | 22 | 258 | 9.7 | 22.5 | 0.00 | 0.00 | 0.00 | 41 | 1005.3 |
| 20260503180021 | 22 | 225 | 11.3 | 27.4 | 0.00 | 0.00 | 0.00 | 42 | 1005.4 |
| 20260503175016 | 22 | 246 | 9.7 | 22.5 | 0.00 | 0.00 | 0.00 | 42 | 1005.5 |
| 20260503174051 | 22 | 236 | 11.3 | 25.7 | 0.00 | 0.00 | 0.00 | 42 | 1005.4 |
| 20260503173026 | 22 | 254 | 9.7 | 24.1 | 0.00 | 0.00 | 0.00 | 42 | 1005.6 |
| 20260503172041 | 21 | 208 | 9.7 | 22.5 | 0.00 | 0.00 | 0.00 | 44 | 1005.8 |
| 20260503171017 | 21 | 190 | 8.0 | 22.5 | 0.00 | 0.00 | 0.00 | 42 | 1005.9 |
| 20260503131050 | 13 | 197 | 9.7 | 20.9 | 0.00 | 0.00 | 0.00 | 60 | 1007.5 |
| 20260503081030 | 9 | 184 | 1.6 | 4.8 | 0.00 | 0.00 | 0.00 | 66 | 1010.2 |
| 20260503072029 | 4 | 0.0 | 0.0 | 0.00 | 0.00 | 0.00 | 83 | 1010.5 | |
| 20260503071023 | 3 | 187 | 1.6 | 6.4 | 0.00 | 0.00 | 0.00 | 83 | 1010.5 |
| 20260503055052 | 2 | 0.0 | 0.0 | 0.00 | 0.00 | 0.00 | 79 | 1011.1 | |
| 20260503054025 | 2 | 0.0 | 0.0 | 0.00 | 0.00 | 0.00 | 78 | 1011.1 | |
| 20260503053020 | 2 | 0.0 | 0.0 | 0.00 | 0.00 | 0.00 | 78 | 1011.3 | |
| 20260503052036 | 2 | 0.0 | 0.0 | 0.00 | 0.00 | 0.00 | 78 | 1011.3 | |
| 20260503051031 | 2 | 0.0 | 0.0 | 0.00 | 0.00 | 0.00 | 77 | 1011.3 | |
| 20260503050026 | 2 | 0.0 | 0.0 | 0.00 | 0.00 | 0.00 | 77 | 1011.4 | |
| 20260503045022 | 2 | 0.0 | 0.0 | 0.00 | 0.00 | 0.00 | 76 | 1011.4 | |
| 20260503044018 | 2 | 0.0 | 0.0 | 0.00 | 0.00 | 0.00 | 76 | 1011.4 | |
| 20260503043033 | 2 | 0.0 | 0.0 | 0.00 | 0.00 | 0.00 | 76 | 1011.5 | |
| 20260503042028 | 2 | 0.0 | 0.0 | 0.00 | 0.00 | 0.00 | 75 | 1011.6 | |
| 20260503041023 | 2 | 0.0 | 0.0 | 0.00 | 0.00 | 0.00 | 74 | 1011.8 | |
| 20260503040019 | 2 | 62 | 0.0 | 1.6 | 0.00 | 0.00 | 0.00 | 74 | 1011.8 |
| 20260503035035 | 3 | 79 | 0.0 | 3.2 | 0.00 | 0.00 | 0.00 | 73 | 1011.8 |
| 20260503034030 | 3 | 0.0 | 0.0 | 0.00 | 0.00 | 0.00 | 72 | 1012.0 | |
| 20260503033025 | 3 | 0.0 | 0.0 | 0.00 | 0.00 | 0.00 | 71 | 1012.0 | |
| 20260503032021 | 3 | 0.0 | 0.0 | 0.00 | 0.00 | 0.00 | 70 | 1012.2 | |
| 20260503031037 | 4 | 0.0 | 0.0 | 0.00 | 0.00 | 0.00 | 70 | 1012.3 | |
| 20260503030034 | 4 | 0.0 | 0.0 | 0.00 | 0.00 | 0.00 | 69 | 1012.3 | |
| 20260503025028 | 5 | 0.0 | 0.0 | 0.00 | 0.00 | 0.00 | 69 | 1012.4 | |
| 20260503024024 | 5 | 0.0 | 0.0 | 0.00 | 0.00 | 0.00 | 67 | 1012.2 | |
| 20260503023019 | 5 | 0.0 | 0.0 | 0.00 | 0.00 | 0.00 | 67 | 1012.4 | |
| 20260503022057 | 6 | 0.0 | 0.0 | 0.00 | 0.00 | 0.00 | 66 | 1012.3 | |
| 20260503021029 | 6 | 0.0 | 0.0 | 0.00 | 0.00 | 0.00 | 65 | 1012.5 | |
| 20260503020206 | 7 | 100 | 1.6 | 3.2 | 0.00 | 0.00 | 0.00 | 64 | 1012.4 |
| 20260503015022 | 7 | 89 | 1.6 | 3.2 | 0.00 | 0.00 | 0.00 | 64 | 1012.4 |
| 20260503014018 | 8 | 80 | 3.2 | 6.4 | 0.00 | 0.00 | 0.00 | 63 | 1012.4 |
| 20260503013053 | 8 | 88 | 3.2 | 6.4 | 0.00 | 0.00 | 0.00 | 63 | 1012.4 |